Latest Weather Observations for Parawa West

IDS60801

Issued at 4:35 pm CST Wednesday 1 October 2014 (issued every 30 minutes, with the page automatically refreshed every 10 minutes)

About weather observations | Map of weather stations | Latest weather observations for SA | Other Formats
Station Details ID: 023875 Name: SECOND VALLEY FOREST AWS Lat: -35.57 Lon: 138.29 Height: 341.0 m
Data from the previous 72 hours. | See also: Recent months at Parawa West
Date/Time
CST
Temp
°C
App
Temp
°C
Dew
Point
Rel
Hum
%
Delta-T
°C
Wind Press
QNH
hPa
Press
MSL
hPa
Rain
since 9 am
mm
Dir
 
Spd
km/h
Gust
km/h
Spd
kts
Gust
kts
01/04:30pm 11.0 6.9 6.4 73 2.2 SSE 17 24 9 13 1027.0 1026.9 0.0
01/04:00pm 11.3 7.2 6.2 71 2.4 S 17 22 9 12 1027.2 1027.1 0.0
01/03:30pm 11.4 6.9 6.1 70 2.5 S 19 24 10 13 1027.1 1027.0 0.0
01/03:00pm 11.9 7.8 6.2 68 2.7 S 17 24 9 13 1027.2 1027.1 0.0
01/02:30pm 12.3 8.5 5.7 64 3.1 S 15 19 8 10 1027.4 1027.3 0.0
01/02:00pm 12.2 8.2 4.7 60 3.5 S 15 20 8 11 1027.5 1027.4 0.0
01/01:30pm 12.3 8.7 4.8 60 3.5 SSE 13 20 7 11 1027.6 1027.5 0.0
01/01:00pm 12.2 8.0 5.6 64 3.1 S 17 24 9 13 1027.9 1027.8 0.0
01/12:30pm 12.0 8.1 5.2 63 3.2 SSE 15 22 8 12 1028.0 1027.9 0.0
01/12:00pm 11.9 7.3 5.8 66 2.9 S 19 26 10 14 1028.3 1028.2 0.0
01/11:30am 12.4 8.1 7.1 70 2.6 S 19 26 10 14 1028.3 1028.2 0.0
01/11:00am 11.1 6.6 6.3 72 2.3 S 19 24 10 13 1028.3 1028.2 0.0
01/10:30am 10.3 6.4 7.0 80 1.6 S 17 20 9 11 1028.3 1028.2 0.0
01/10:00am 10.8 7.1 6.4 74 2.1 S 15 22 8 12 1028.1 1028.0 0.0
01/09:30am 10.9 7.2 6.1 72 2.3 S 15 20 8 11 1027.9 1027.8 0.0
01/09:00am 10.8 6.6 5.8 71 2.3 S 17 22 9 12 1027.5 1027.6 2.0
01/08:30am 10.8 6.1 5.1 68 2.6 S 19 22 10 12 1027.2 1027.3 2.0
01/08:00am 10.5 6.6 5.5 71 2.3 S 15 22 8 12 1026.8 1026.9 2.0
01/07:30am 9.2 5.0 4.0 70 2.3 S 15 22 8 12 1026.4 1026.6 2.0
01/07:00am 9.1 5.0 4.3 72 2.2 SSW 15 22 8 12 1025.9 1026.0 2.0
01/06:30am 8.7 3.8 3.9 72 2.1 SSW 19 26 10 14 1025.5 1025.6 2.0
01/06:00am 8.6 4.1 4.4 75 1.9 SSW 17 22 9 12 1025.2 1025.3 2.0
01/05:30am 8.6 4.0 3.8 72 2.1 SSW 17 24 9 13 1024.8 1024.9 2.0
01/05:00am 8.9 4.1 4.9 76 1.8 SSW 19 28 10 15 1024.2 1024.3 2.0
01/04:30am 8.7 4.0 6.2 84 1.2 SSW 20 30 11 16 1023.9 1023.9 2.0
01/04:00am 8.3 5.5 5.1 80 1.5 SW 9 15 5 8 1023.5 1023.5 2.0
01/03:30am 7.9 5.0 4.7 80 1.4 SW 9 17 5 9 1023.3 1023.4 2.0
01/03:00am 8.1 4.9 4.9 80 1.4 SW 11 19 6 10 1023.2 1023.3 2.0
01/02:30am 8.8 4.9 5.4 79 1.6 SSW 15 22 8 12 1023.1 1023.2 2.0
01/02:00am 8.6 5.3 6.2 85 1.1 SW 13 19 7 10 1022.8 1022.9 2.0
01/01:30am 8.4 6.1 5.5 82 1.3 SW 7 13 4 7 1022.8 1022.9 2.0
01/01:00am 8.6 5.5 5.7 82 1.3 SW 11 15 6 8 1022.7 1022.8 2.0
01/12:30am 8.6 6.0 6.2 85 1.1 SSW 9 15 5 8 1022.7 1022.8 2.0
01/12:00am 8.2 5.5 5.8 85 1.1 SW 9 15 5 8 1022.6 1022.7 2.0
 
Date/Time
CST
Temp
°C
App
Temp
°C
Dew
Point
Rel
Hum
%
Delta-T
°C
Wind Press
QNH
hPa
Press
MSL
hPa
Rain
since 9 am
mm
Dir
 
Spd
km/h
Gust
km/h
Spd
kts
Gust
kts
30/11:30pm 7.8 5.6 6.1 89 0.8 SW 7 11 4 6 1022.3 1022.4 2.0
30/11:00pm 8.0 5.4 6.3 89 0.8 SW 9 15 5 8 1022.1 1022.2 2.0
30/10:30pm 8.3 5.0 6.4 88 0.9 SW 13 22 7 12 1021.8 1021.9 2.0
30/10:00pm 8.8 6.4 6.8 87 0.9 SW 9 15 5 8 1021.6 1021.7 2.0
30/09:30pm 8.9 6.2 7.2 89 0.8 SW 11 20 6 11 1021.4 1021.4 2.0
30/09:00pm 9.0 5.9 7.1 88 0.9 SW 13 20 7 11 1021.1 1021.1 2.0
30/08:30pm 9.0 5.1 7.0 87 1.0 WSW 17 26 9 14 1020.9 1020.9 2.0
30/08:00pm 9.6 5.9 6.1 79 1.6 WSW 15 22 8 12 1020.4 1020.4 2.0
30/07:30pm 9.5 6.7 6.9 84 1.2 WSW 11 19 6 10 1019.9 1020.0 2.0
30/07:00pm 9.9 5.8 6.3 78 1.7 WSW 17 28 9 15 1019.2 1019.3 2.0
30/06:30pm 10.9 6.6 5.4 69 2.6 W 17 26 9 14 1018.5 1018.5 2.0
30/06:00pm 11.1 6.4 6.0 71 2.4 W 20 28 11 15 1018.2 1018.2 2.0
30/05:30pm 12.1 8.1 6.6 69 2.7 WSW 17 30 9 16 1017.7 1017.7 2.0
30/05:00pm 12.4 7.9 6.0 65 3.1 WSW 19 32 10 17 1017.1 1017.2 2.0
30/04:30pm 12.8 8.2 5.5 61 3.5 W 19 33 10 18 1016.6 1016.7 2.0
30/04:00pm 13.7 8.4 4.8 55 4.2 WSW 22 35 12 19 1016.2 1016.2 2.0
30/03:30pm 13.9 8.4 5.8 58 3.9 WSW 24 41 13 22 1015.9 1015.9 2.0
30/03:00pm 14.1 8.9 7.2 63 3.4 W 24 43 13 23 1015.5 1015.5 2.0
30/02:30pm 14.3 10.3 9.1 71 2.7 WSW 20 33 11 18 1015.0 1015.0 2.0
30/02:00pm 12.8 9.9 10.9 88 1.0 W 17 28 9 15 1015.0 1015.0 2.0
30/01:30pm 11.6 7.3 10.7 94 0.5 W 24 35 13 19 1014.9 1014.9 2.0
30/01:00pm 12.4 8.3 11.6 95 0.4 W 24 35 13 19 1014.3 1014.3 1.6
30/12:37pm 11.4 6.0 10.9 97 0.3 W 30 50 16 27 1014.2 1014.2 1.6
30/12:30pm 11.6 5.9 11.0 96 0.3 W 32 44 17 24 1014.0 1014.1 1.4
30/12:00pm 13.6 6.4 10.6 82 1.6 WNW 39 59 21 32 1013.3 1013.3 0.2
30/11:30am 14.0 6.2 11.0 82 1.6 WNW 43 67 23 36 1013.1 1013.1 0.2
30/11:00am 13.1 6.5 11.5 90 0.9 WNW 37 65 20 35 1012.8 1012.8 0.2
30/10:30am 14.1 7.2 11.6 85 1.4 WNW 39 59 21 32 1012.5 1012.5 0.0
30/10:00am 13.7 7.1 11.4 86 1.2 WNW 37 63 20 34 1012.5 1012.5 0.0
30/09:30am 13.3 7.2 11.7 90 0.9 NW 35 57 19 31 1012.1 1012.1 0.0
30/09:04am 13.3 8.1 11.5 89 1.0 NW 30 48 16 26 1011.8 1011.8 0.0
30/09:00am 13.5 8.0 11.7 89 1.0 NW 32 48 17 26 1011.8 1011.8 0.2
30/08:30am 13.2 7.5 11.1 87 1.1 NW 32 54 17 29 1011.6 1011.6 0.2
30/08:00am 13.1 8.2 11.2 88 1.0 NW 28 46 15 25 1011.3 1011.2 0.2
30/07:30am 13.0 7.5 10.7 86 1.2 NW 30 54 16 29 1011.5 1011.5 0.2
30/07:26am 12.8 7.3 10.7 87 1.1 NW 30 48 16 26 1011.2 1011.1 0.2
30/07:00am 12.6 6.7 10.5 87 1.1 NW 32 46 17 25 1011.3 1011.2 0.2
30/06:30am 12.4 6.5 10.5 88 1.0 NW 32 46 17 25 1010.1 1010.1 0.2
30/06:12am 11.8 6.8 10.9 94 0.5 NW 28 46 15 25 1010.2 1010.2 0.2
30/06:00am 11.7 7.3 11.7 100 0.0 NW 26 41 14 22 1010.2 1010.2 0.2
30/05:30am 11.8 7.4 11.8 100 0.0 NNW 26 41 14 22 1009.9 1009.9 0.2
30/05:00am 12.1 8.6 12.1 100 0.0 NNW 22 32 12 17 1009.9 1009.9 0.2
30/04:30am 12.0 9.0 11.8 99 0.1 NNW 19 28 10 15 1010.0 1010.0 0.2
30/04:00am 11.5 8.2 11.5 100 0.0 NNW 20 30 11 16 1009.6 1009.6 0.2
30/03:30am 11.5 9.1 11.5 100 0.0 NNW 15 22 8 12 1010.0 1010.0 0.2
30/03:00am 11.7 9.4 11.7 100 0.0 NNW 15 26 8 14 1010.4 1010.4 0.2
30/02:30am 11.5 8.7 11.5 100 0.0 NNW 17 24 9 13 1010.5 1010.5 0.2
30/02:00am 11.5 9.5 11.5 100 0.0 NNW 13 26 7 14 1010.9 1010.9 0.2
30/01:30am 11.3 9.6 11.3 100 0.0 NNW 11 19 6 10 1011.6 1011.6 0.2
30/01:00am 11.7 9.4 11.7 100 0.0 NNW 15 24 8 13 1012.1 1012.1 0.2
30/12:30am 11.7 9.8 11.7 100 0.0 NNW 13 20 7 11 1012.7 1012.7 0.2
30/12:00am 11.6 10.4 11.6 100 0.0 NNW 9 15 5 8 1013.1 1013.1 0.2
 
Date/Time
CST
Temp
°C
App
Temp
°C
Dew
Point
Rel
Hum
%
Delta-T
°C
Wind Press
QNH
hPa
Press
MSL
hPa
Rain
since 9 am
mm
Dir
 
Spd
km/h
Gust
km/h
Spd
kts
Gust
kts
29/11:30pm 11.5 9.8 11.3 99 0.1 NNW 11 20 6 11 1013.6 1013.6 0.2
29/11:00pm 11.4 9.7 11.1 98 0.2 NNW 11 19 6 10 1013.9 1014.0 0.2
29/10:30pm 11.5 9.0 11.2 98 0.2 NW 15 22 8 12 1014.3 1014.3 0.2
29/10:00pm 11.6 8.7 11.1 97 0.3 NW 17 26 9 14 1014.4 1014.4 0.2
29/09:30pm 11.6 8.3 10.8 95 0.4 WNW 19 26 10 14 1014.4 1014.4 0.2
29/09:00pm 11.4 8.2 10.1 92 0.7 WNW 17 28 9 15 1014.3 1014.3 0.2
29/08:30pm 11.5 8.3 10.1 91 0.7 NW 17 26 9 14 1014.2 1014.2 0.2
29/08:00pm 11.3 7.6 9.4 88 1.0 WNW 19 32 10 17 1013.8 1013.8 0.2
29/07:30pm 11.3 8.0 9.6 89 0.9 WNW 17 32 9 17 1013.5 1013.5 0.2
29/07:00pm 11.2 8.7 9.6 90 0.8 NW 13 20 7 11 1013.2 1013.2 0.2
29/06:30pm 11.5 9.0 9.6 88 1.0 NNW 13 19 7 10 1012.9 1012.9 0.2
29/06:00pm 12.5 9.5 9.3 81 1.6 NW 15 20 8 11 1012.8 1012.8 0.2
29/05:30pm 13.4 10.4 9.1 75 2.2 NW 15 24 8 13 1012.6 1012.6 0.2
29/05:00pm 13.5 10.2 9.7 78 2.0 NW 17 26 9 14 1012.5 1012.5 0.2
29/04:30pm 13.9 10.7 9.9 77 2.1 NW 17 26 9 14 1012.3 1012.3 0.2
29/04:00pm 14.1 10.8 9.7 75 2.3 NW 17 28 9 15 1012.3 1012.3 0.2
29/03:30pm 14.8 10.5 10.6 76 2.3 NW 24 37 13 20 1012.2 1012.2 0.2
29/03:00pm 15.1 11.2 10.9 76 2.3 NW 22 37 12 20 1012.3 1012.3 0.2
29/02:30pm 14.6 10.4 11.0 79 1.9 NW 24 37 13 20 1012.5 1012.5 0.2
29/02:00pm 15.0 10.7 10.8 76 2.3 NW 24 41 13 22 1012.8 1012.8 0.2
29/01:30pm 14.9 10.6 10.7 76 2.3 NW 24 35 13 19 1013.0 1013.0 0.0
29/01:00pm 14.7 10.9 9.9 73 2.5 NNW 20 32 11 17 1013.4 1013.4 0.0
29/12:30pm 14.7 10.5 9.7 72 2.6 NW 22 33 12 18 1013.9 1014.0 0.0
29/12:00pm 14.7 10.3 10.3 75 2.3 NW 24 39 13 21 1014.2 1014.2 0.0
29/11:30am 14.1 10.2 10.9 81 1.7 NW 22 37 12 20 1014.5 1014.5 0.0
29/11:00am 13.9 10.8 11.6 86 1.3 NNW 19 30 10 16 1014.8 1014.8 0.0
29/10:30am 12.7 10.4 11.9 95 0.4 NNW 15 30 8 16 1015.0 1015.0 0.0
29/10:00am 13.2 10.7 10.9 86 1.2 NNW 15 20 8 11 1015.0 1015.0 0.0
29/09:30am 13.2 10.1 10.2 82 1.6 NW 17 24 9 13 1015.1 1015.1 0.0
29/09:00am 12.9 9.5 9.2 78 1.9 WNW 17 24 9 13 1015.0 1015.0 0.0
29/08:30am 13.1 10.6 9.7 80 1.8 WNW 13 24 7 13 1014.7 1014.7 0.0
29/08:00am 12.2 9.2 9.4 83 1.4 WNW 15 20 8 11 1014.6 1014.6 0.0
29/07:30am 11.8 9.4 10.2 90 0.8 W 13 20 7 11 1014.3 1014.3 0.0
29/07:00am 11.3 9.4 10.5 95 0.4 W 11 15 6 8 1014.2 1014.2 0.0
29/06:30am 11.3 9.2 11.0 98 0.2 W 13 20 7 11 1013.9 1014.0 0.0
29/06:00am 11.5 9.1 11.3 99 0.1 WNW 15 20 8 11 1013.7 1013.7 0.0
29/05:30am 11.5 8.7 11.3 99 0.1 W 17 24 9 13 1013.5 1013.5 0.0
29/05:00am 11.8 8.4 11.3 97 0.3 WNW 20 32 11 17 1013.0 1013.0 0.0
29/04:30am 11.9 8.5 11.3 96 0.3 WNW 20 37 11 20 1012.7 1012.7 0.0
29/04:00am 11.9 8.5 11.1 95 0.4 WNW 20 30 11 16 1012.7 1012.7 0.0
29/03:30am 11.8 8.0 11.2 96 0.3 WNW 22 39 12 21 1012.5 1012.5 0.0
29/03:00am 11.9 7.8 11.3 96 0.3 WNW 24 41 13 22 1012.7 1012.7 0.0
29/02:30am 11.7 7.1 11.1 96 0.3 WNW 26 39 14 21 1012.6 1012.6 0.0
29/02:00am 11.8 7.6 11.0 95 0.4 NW 24 37 13 20 1012.7 1012.7 0.0
29/01:30am 12.1 7.9 11.2 94 0.5 NW 24 41 13 22 1012.8 1012.8 0.0
29/01:00am 12.3 7.7 11.2 93 0.6 WNW 26 37 14 20 1013.1 1013.1 0.0
29/12:30am 12.2 7.6 10.9 92 0.7 WNW 26 37 14 20 1013.4 1013.4 0.0
29/12:00am 12.2 8.3 10.8 91 0.7 NW 22 37 12 20 1013.8 1013.8 0.0
 
Date/Time
CST
Temp
°C
App
Temp
°C
Dew
Point
Rel
Hum
%
Delta-T
°C
Wind Press
QNH
hPa
Press
MSL
hPa
Rain
since 9 am
mm
Dir
 
Spd
km/h
Gust
km/h
Spd
kts
Gust
kts
28/11:30pm 12.0 8.0 10.4 90 0.8 WNW 22 35 12 19 1013.8 1013.8 0.0
28/11:00pm 12.4 8.8 10.5 88 1.0 NW 20 37 11 20 1014.2 1014.2 0.0
28/10:30pm 12.2 8.6 10.6 90 0.8 WNW 20 41 11 22 1013.9 1014.0 0.0
28/10:00pm 12.4 8.1 10.6 89 1.0 WNW 24 37 13 20 1013.4 1013.4 0.0
28/09:30pm 12.1 7.8 10.8 92 0.7 NW 24 37 13 20 1013.4 1013.4 0.0
28/09:00pm 12.1 7.8 10.7 91 0.7 NW 24 37 13 20 1012.8 1012.8 0.0
28/08:30pm 12.1 7.7 10.5 90 0.8 WNW 24 41 13 22 1012.7 1012.7 0.0
28/08:00pm 12.5 7.3 10.4 87 1.1 WNW 28 44 15 24 1012.3 1012.3 0.0
28/07:30pm 12.3 6.9 9.5 83 1.4 WNW 28 41 15 22 1011.8 1011.8 0.0
28/07:00pm 12.3 7.6 10.7 90 0.8 WNW 26 43 14 23 1010.9 1010.9 0.0
28/06:30pm 12.5 8.2 10.9 90 0.9 WNW 24 37 13 20 1010.3 1010.3 0.0
28/06:00pm 12.9 8.9 10.4 85 1.3 WNW 22 39 12 21 1009.6 1009.6 0.0
28/05:30pm 13.7 8.6 10.7 82 1.6 WNW 28 41 15 22 1009.4 1009.4 0.0
28/05:00pm 14.7 9.7 10.9 78 2.0 WNW 28 44 15 24 1008.9 1008.8 0.0

Other Formats:

Comma delimited format used in spreadsheet applications
http://www.bom.gov.au/fwo/IDS60801/IDS60801.94811.axf

JavaScript Object Notation format (JSON) in row-major order
http://www.bom.gov.au/fwo/IDS60801/IDS60801.94811.json